Retour au catalogue

ATLAS 5 CENTAUR DEB

ActifHEO
NORAD 44650·DEBRIS·🇺🇸 United States

Lancé Oct 17, 2018 depuis Cape Canaveral Space Force Station

Loading…

Prochains Passages (prochaines 24 heures)

TLE

FraisSource: Space-Track

Époque: Sep 13, 2026, 08:55 UTC

1 44650U 18079L   26256.37206602 -.00000164  00000-0  00000-0 0  9993
2 44650  13.1828  23.1113 4444402 348.7054   3.8245  1.90420741 51835

Suivez ATLAS 5 CENTAUR DEB en temps réel avec AllMySat

Download on the App Store